Regional Weather Roundup
Issued by NWS

Home | Current Version | Previous Version | Text Only | Print | Product List | Glossary On
Versions: 1 2 3 4 5 6 7 8 9 10 11 12 13 14 15 16 17 18 19 20 21 22 23 24 25 26 27 28 29 30 31 32 33 34 35 36 37 38 39 40 41 42 43 44 45 46 47 48 49 50
000
ASUS44 KOUN 210510
RWROK

WEATHER ROUNDUP FOR OKLAHOMA
NATIONAL WEATHER SERVICE NORMAN OK
1200 AM CDT TUE APR 21 2015

NOTE: "FAIR" INDICATES FEW OR NO CLOUDS BELOW 12,000 FEET WITH NO
      SIGNIFICANT WEATHER AND/OR OBSTRUCTIONS TO VISIBILITY.

OKZ001>007-009>012-014-015-017-210600-
NORTHWEST OKLAHOMA AND THE PANHANDLE

CITY           SKY/WX    TMP DP  RH WIND       PRES   REMARKS
GAGE           CLOUDY    53  38  56 S13       29.96F
GUYMON         PTCLDY    50  43  77 S8        29.95R
ENID/WOODRING  CLEAR     46  41  81 S5        29.96S
$$

OKZ016-021>023-033>039-044-045-210600-
SOUTHWEST OKLAHOMA

CITY           SKY/WX    TMP DP  RH WIND       PRES   REMARKS
LAWTON/REGL    PTCLDY    53  45  74 CALM      29.99S
LAWTON/FT SILL PTCLDY    55  43  63 S5        29.98S
FREDERICK      MOCLDY    54  42  64 SE9       29.96S
CLINTON        CLOUDY    54  41  61 S7        30.01R
HOBART         CLOUDY    54  41  61 S6        30.00R
ALTUS AFB      PTCLDY    55  45  68 E2        29.99R
$$

OKZ018>020-024>031-210600-
CENTRAL OKLAHOMA

CITY           SKY/WX    TMP DP  RH WIND       PRES   REMARKS
OKLAHOMA CITY  MOCLDY    50  38  63 SE6       29.98F
OKC/WILEY POST CLEAR     53  37  54 SE7       29.98F
OKC/TINKER AFB CLEAR     52  38  58 SE7       29.97F
STILLWATER     CLEAR     43  39  86 S6        29.97S
GUTHRIE        CLEAR     47  39  74 SE5       29.99R
$$

OKZ008-013-054>072-210600-
NORTHEAST OKLAHOMA

CITY           SKY/WX    TMP DP  RH WIND       PRES   REMARKS
TULSA          PTCLDY    52  40  63 S6        29.96R
TULSA/JONES    CLEAR     46  42  86 CALM      29.98R
PONCA CITY     PTCLDY    50  40  68 S3        29.95S
BARTLESVILLE   CLEAR     49  38  65 W6        29.96S
MUSKOGEE       CLEAR     47  43  86 S6        30.00R
$$

OKZ032-040>043-046>053-073>077-210600-
SOUTH CENTRAL/SOUTHEAST OKLAHOMA

CITY           SKY/WX    TMP DP  RH WIND       PRES   REMARKS
ARDMORE/DWNTWN CLEAR     46  43  87 CALM      30.01S
MCALESTER      PTCLDY    44  40  85 CALM      30.01S
$$




USA.gov is the U.S. government's official web portal to all federal, state and local government web resources and services.